Regional Weather Roundup
Issued by NWS Charleston, WV

Home | Current Version | Previous Version | Text Only | Print | Product List | Glossary Off
Versions: 1 2 3 4 5 6 7 8 9 10 11 12 13 14 15 16 17 18 19 20 21 22 23 24 25 26 27 28 29 30 31 32 33 34 35 36 37 38 39 40 41 42 43 44 45 46 47 48 49 50

000
ASUS41 KRLX 021910
RWRRLX
West Virginia Regional Weather Roundup
National Weather Service Charleston WV
200 PM EST MON MAR 02 2015

Note: "fair" indicates few or no clouds below 12,000 feet with no
significant weather and/or obstructions to visibility.

WVZ003-022000-
Northern Panhandle of West Virginia

CITY           SKY/WX    TMP DP  RH WIND       PRES   REMARKS
WHEELING       PTSUNNY   28  13  53 W13       30.40F
$$

WVZ009-022000-
Northwest West Virginia

CITY           SKY/WX    TMP DP  RH WIND       PRES   REMARKS
PARKERSBURG    SUNNY     33  15  47 W12       30.47F
$$

WVZ006-022000-
Western West Virginia

CITY           SKY/WX    TMP DP  RH WIND       PRES   REMARKS
HUNTINGTON     SUNNY     37  19  48 VRB6      30.43F
$$

WVZ015-022000-
West Central West Virginia

CITY           SKY/WX    TMP DP  RH WIND       PRES   REMARKS
CHARLESTON     MOSUNNY   39  21  48 NW6       30.41F
$$

WVZ022-031-022000-
North Central West Virginia

CITY           SKY/WX    TMP DP  RH WIND       PRES   REMARKS
CLARKSBURG     MOSUNNY   34  20  56 NW8       30.38F
MORGANTOWN     SUNNY     33  14  45 W8        30.38F
$$

WVZ025-035-042-045-022000-
Southern West Virginia

CITY           SKY/WX    TMP DP  RH WIND       PRES   REMARKS
BECKLEY        SUNNY     35  16  45 N10G21    30.31F
LOGAN            N/A     39  21  48 VRB3      30.33F
BLUEFIELD      SUNNY     39  23  52 NW12G17   30.28F
LEWISBURG      SUNNY     40  14  33 N10G22    30.28F
$$

WVZ047-022000-
Northern Mountains of West Virginia

CITY           SKY/WX    TMP DP  RH WIND       PRES   REMARKS
ELKINS         SUNNY     33  19  56 NW9G20    30.33F
$$

WVZ052-022000-
Eastern Panhandle of West Virginia

CITY           SKY/WX    TMP DP  RH WIND       PRES   REMARKS
MARTINSBURG    SUNNY     41  14  33 NW17G25   30.29F
PETERSBURG     NOT AVBL
$$


USA.gov is the U.S. government's official web portal to all federal, state and local government web resources and services.